Weather observations for the past three days for
Fort Pierce, St. Lucie County International Airport
| Date | Time (edt) | Wind (mph) | Vis. (mi.) | Weather | Sky Cond. | Temperature (ºF) | Relative Humidity | Wind Chill (°F) | Heat Index (°F) | Pressure | Precipitation (in) | ||||||
|---|---|---|---|---|---|---|---|---|---|---|---|---|---|---|---|---|---|
| Air | Dwpt | 6 hour | altimeter (in) | sea level (mb) | 1 hr | 3 hr | 6 hr | ||||||||||
| Max. | Min. | ||||||||||||||||
| 07 | 14:53 | SW 10 | 10.00 | Fair | CLR | 91.9 | 63 | 38% | 93 | 29.96 | 1014.5 | ||||||
| 07 | 13:53 | SW 12 G 17 | 10.00 | Fair | CLR | 91 | 64.9 | 91.9 | 70 | 42% | 93 | 29.98 | 1015.3 | ||||
| 07 | 12:53 | SW 6 | 10.00 | Partly Cloudy | SCT044 | 88 | 69.1 | 54% | 92 | 29.99 | 1015.4 | ||||||
| 07 | 11:53 | SW 9 | 10.00 | Fair | CLR | 87.1 | 68 | 53% | 91 | 30.01 | 1016.1 | ||||||
| 07 | 10:53 | W 6 | 10.00 | Fair | CLR | 84 | 68 | 59% | 87 | 30.02 | 1016.6 | ||||||
| 07 | 09:53 | SW 7 | 10.00 | Fair | CLR | 82 | 66 | 58% | 84 | 30.03 | 1016.8 | ||||||
| 07 | 08:53 | SW 6 | 10.00 | Fair | CLR | 78.1 | 69.1 | 74% | 80 | 30.03 | 1016.7 | ||||||
| 07 | 07:53 | Calm | 10.00 | Fair | CLR | 70 | 68 | 70 | 62.1 | 93% | 30.02 | 1016.6 | |||||
| 07 | 06:53 | Calm | 5.00 | Fog/Mist | CLR | 64 | 64 | 100% | 30.01 | 1016.3 | |||||||
| 07 | 05:53 | Calm | 10.00 | Fair | CLR | 63 | 63 | 100% | 29.99 | 1015.4 | |||||||
| 07 | 04:53 | Calm | 10.00 | Fair | CLR | 64 | 63 | 96% | 29.97 | 1014.7 | |||||||
| 07 | 03:53 | Calm | 10.00 | Fair | CLR | 64.9 | 63 | 93% | 29.97 | 1014.8 | |||||||
| 07 | 02:53 | NW 3 | 10.00 | Fair | CLR | 66.9 | 64.9 | 93% | 29.99 | 1015.6 | |||||||
| 07 | 01:53 | SW 3 | 10.00 | Fair | CLR | 70 | 66 | 78.1 | 70 | 87% | 30 | 1015.9 | |||||
| 07 | 00:53 | SE 7 | 10.00 | Fair | CLR | 75.9 | 66 | 72% | 77 | 30.01 | 1016.2 | ||||||
| 06 | 23:53 | SE 8 | 10.00 | Fair | CLR | 75 | 66.9 | 76% | 76 | 30.01 | 1016.3 | ||||||
| 06 | 22:53 | E 8 | 10.00 | Fair | CLR | 75.9 | 68 | 77% | 77 | 30.02 | 1016.4 | ||||||
| 06 | 21:53 | E 8 | 10.00 | Fair | CLR | 77 | 66 | 69% | 79 | 30.02 | 1016.4 | ||||||
| 06 | 20:53 | SE 8 | 10.00 | Fair | CLR | 77 | 66 | 69% | 79 | 30.01 | 1016.3 | ||||||
| 06 | 19:53 | E 9 | 10.00 | Fair | CLR | 78.1 | 64 | 86 | 78.1 | 62% | 80 | 30.01 | 1016.0 | ||||
| 06 | 18:53 | E 14 | 10.00 | Fair | CLR | 81 | 62.1 | 53% | 82 | 30.01 | 1016.1 | ||||||
| 06 | 17:53 | E 14 | 10.00 | Fair | CLR | 82.9 | 64.9 | 55% | 85 | 30.01 | 1016.0 | ||||||
| 06 | 16:53 | E 10 | 10.00 | Fair | CLR | 84 | 66 | 55% | 86 | 30.01 | 1016.0 | ||||||
| 06 | 15:53 | SE 12 | 10.00 | Fair | CLR | 84.9 | 64 | 50% | 86 | 30.01 | 1016.3 | ||||||
| 06 | 14:53 | E 12 | 10.00 | Fair | CLR | 86 | 57 | 37% | 85 | 30.03 | 1016.8 | ||||||
| 06 | 13:53 | SE 9 | 10.00 | Fair | CLR | 84.9 | 63 | 86 | 70 | 48% | 86 | 30.04 | 1017.3 | ||||
| 06 | 12:53 | SE 12 | 10.00 | Fair | CLR | 84 | 64 | 51% | 85 | 30.05 | 1017.4 | ||||||
| 06 | 11:53 | SE 9 | 10.00 | Fair | CLR | 84 | 63 | 49% | 85 | 30.06 | 1017.8 | ||||||
| 06 | 10:53 | E 10 | 10.00 | Fair | CLR | 82 | 66.9 | 60% | 85 | 30.05 | 1017.6 | ||||||
| 06 | 09:53 | E 8 | 10.00 | Fair | CLR | 80.1 | 71.1 | 74% | 84 | 30.05 | 1017.4 | ||||||
| 06 | 08:53 | E 9 | 10.00 | Fair | CLR | 78.1 | 71.1 | 79% | 80 | 30.03 | 1016.9 | ||||||
| 06 | 07:53 | Calm | 10.00 | Fair | CLR | 70 | 69.1 | 73 | 64 | 97% | 30.03 | 1016.7 | |||||
| 06 | 06:53 | Calm | 10.00 | Fair | CLR | 64.9 | 64 | 97% | 30.01 | 1016.2 | |||||||
| 06 | 05:53 | Calm | 10.00 | Fair | CLR | 64.9 | 64 | 97% | 30 | 1015.8 | |||||||
| 06 | 04:53 | Calm | 10.00 | Fair | CLR | 66.9 | 66 | 97% | 29.99 | 1015.5 | |||||||
| 06 | 03:53 | Calm | 10.00 | A Few Clouds | FEW021 | 69.1 | 66.9 | 93% | 29.99 | 1015.6 | |||||||
| 06 | 02:53 | E 5 | 10.00 | Fair | CLR | 72 | 68 | 87% | 30 | 1015.8 | |||||||
| 06 | 01:53 | E 7 | 10.00 | A Few Clouds | FEW021 | 73 | 68 | 75.9 | 72 | 84% | 30.01 | 1016.0 | |||||
| 06 | 00:53 | E 7 | 10.00 | Fair | CLR | 73 | 68 | 84% | 30.01 | 1016.3 | |||||||
| 05 | 23:53 | E 7 | 10.00 | Fair | CLR | 75 | 66.9 | 76% | 76 | 30.03 | 1016.8 | ||||||
| 05 | 22:53 | E 10 | 10.00 | Fair | CLR | 75 | 66.9 | 76% | 76 | 30.02 | 1016.6 | ||||||
| 05 | 21:53 | E 7 | 10.00 | Fair | CLR | 75 | 64.9 | 71% | 77 | 30.01 | 1016.1 | ||||||
| 05 | 20:53 | E 6 | 10.00 | Fair | CLR | 75 | 63 | 66% | 77 | 29.99 | 1015.5 | ||||||
| 05 | 19:53 | E 8 | 10.00 | Fair | CLR | 75.9 | 64 | 81 | 75.9 | 67% | 78 | 29.98 | 1015.0 | ||||
| 05 | 18:53 | NE 9 G 18 | 10.00 | Fair | CLR | 78.1 | 66 | 67% | 80 | 29.99 | 1015.4 | ||||||
| 05 | 17:53 | E 12 G 18 | 10.00 | A Few Clouds | FEW028 | 79 | 66.9 | 67% | 81 | 29.98 | 1015.0 | ||||||
| 05 | 16:53 | NE 10 G 18 | 10.00 | Mostly Cloudy | SCT027 BKN034 | 80.1 | 66.9 | 64% | 82 | 29.98 | 1015.1 | ||||||
| 05 | 15:53 | E 13 G 18 | 10.00 | Partly Cloudy | SCT027 | 80.1 | 68 | 67% | 83 | 29.99 | 1015.3 | ||||||
| 05 | 14:53 | NE 14 | 10.00 | A Few Clouds | FEW032 FEW043 | 80.1 | 68 | 67% | 83 | 30 | 1015.9 | ||||||
| 05 | 13:53 | E 12 G 23 | 10.00 | Mostly Cloudy | FEW027 SCT035 BKN060 | 81 | 66.9 | 81 | 73.9 | 62% | 83 | 30.01 | 1016.3 | ||||
| 05 | 12:53 | E 13 | 10.00 | Mostly Cloudy | BKN060 | 80.1 | 66 | 62% | 82 | 30.02 | 1016.4 | ||||||
| 05 | 11:53 | E 13 | 10.00 | Partly Cloudy | SCT060 | 80.1 | 64.9 | 60% | 82 | 30.03 | 1016.7 | ||||||
| 05 | 10:53 | E 15 G 23 | 10.00 | Fair | CLR | 79 | 64.9 | 62% | 81 | 30.02 | 1016.3 | ||||||
| 05 | 09:53 | E 14 | 10.00 | Fair | CLR | 78.1 | 64.9 | 64% | 80 | 30 | 1015.9 | ||||||
| 05 | 08:53 | NE 12 G 20 | 10.00 | A Few Clouds | FEW065 | 75.9 | 64 | 67% | 78 | 30 | 1015.8 | ||||||
| 05 | 07:53 | E 7 | 10.00 | Mostly Cloudy | FEW027 BKN060 | 73.9 | 64.9 | 73.9 | 72 | 74% | 29.99 | 1015.4 | |||||
| 05 | 06:53 | E 6 | 10.00 | Mostly Cloudy | FEW028 BKN060 | 73 | 64.9 | 76% | 29.98 | 1015.0 | |||||||
| 05 | 05:53 | E 7 | 10.00 | A Few Clouds | FEW025 | 72 | 64.9 | 79% | 29.95 | 1014.3 | |||||||
| 05 | 04:53 | E 8 | 10.00 | Fair | CLR | 72 | 64 | 76% | 29.95 | 1014.0 | |||||||
| 05 | 03:53 | E 10 | 10.00 | Fair | CLR | 72 | 64 | 76% | 29.94 | 1013.6 | |||||||
| 05 | 02:53 | E 9 | 10.00 | A Few Clouds | FEW030 | 73 | 63 | 71% | 29.96 | 1014.4 | |||||||
| 05 | 01:53 | E 9 | 10.00 | Mostly Cloudy | FEW030 BKN036 | 73 | 64 | 73.9 | 73 | 74% | 29.98 | 1015.2 | |||||
| 05 | 00:53 | E 9 | 10.00 | Partly Cloudy | FEW028 SCT034 | 73 | 64 | 74% | 29.98 | 1015.3 | |||||||
| 04 | 23:53 | E 9 | 10.00 | Mostly Cloudy | FEW030 BKN038 | 73 | 64 | 74% | 29.99 | 1015.6 | |||||||
| 04 | 22:53 | E 10 | 10.00 | Mostly Cloudy | FEW030 BKN046 | 73 | 63 | 71% | 30 | 1015.8 | |||||||
| 04 | 21:53 | E 9 | 10.00 | Overcast | FEW028 OVC043 | 73.9 | 64 | 71% | 30 | 1015.7 | |||||||
| 04 | 20:53 | E 13 | 10.00 | Mostly Cloudy | FEW029 SCT040 BKN049 | 73.9 | 63 | 69% | 29.98 | 1015.3 | |||||||
| 04 | 19:53 | E 12 | 10.00 | Partly Cloudy | FEW027 SCT036 | 73.9 | 64 | 79 | 73.9 | 71% | 29.97 | 1014.7 | |||||
| 04 | 18:53 | E 13 | 10.00 | Overcast | FEW027 BKN037 OVC065 | 75.9 | 64 | 67% | 78 | 29.96 | 1014.4 | ||||||
| 04 | 17:53 | E 10 G 21 | 10.00 | Overcast | SCT026 BKN040 OVC050 | 75 | 64 | 69% | 77 | 29.97 | 1014.7 | ||||||
| 04 | 16:53 | E 13 G 24 | 10.00 | Overcast | SCT028 BKN036 OVC065 | 75.9 | 64.9 | 69% | 78 | 29.97 | 1014.8 | ||||||
| 04 | 15:53 | E 16 G 24 | 10.00 | Overcast | FEW036 SCT043 OVC065 | 75.9 | 64 | 67% | 78 | 29.98 | 1015.3 | ||||||
| Date | Time (edt) | Wind (mph) | Vis. (mi.) | Weather | Sky Cond. | Air | Dwpt | Max. | Min. | Relative Humidity | Wind Chill (°F) | Heat Index (°F) | altimeter (in) | sea level (mb) | 1 hr | 3 hr | 6 hr |
| 6 hour | |||||||||||||||||
| Temperature (ºF) | Pressure | Precipitation (in) | |||||||||||||||